timestamp,surface_pressure_avg,surface_temp_avg,battery_voltage,lat,long
2019-10-08 00:00:00+00:00,237.6931,9.3,12.89,47.84626,-54.09684
2019-10-08 00:10:00+00:00,237.7847,9.3,12.81,47.84626,-54.09684
2019-10-08 00:20:00+00:00,239.2048,9.3,12.89,47.84626,-54.09684
2019-10-08 00:30:00+00:00,234.3698,9.3,12.97,47.84626,-54.09684
2019-10-08 00:40:00+00:00,230.6748,9.29,12.97,47.84626,-54.09684
2019-10-08 00:50:00+00:00,236.0531,9.3,12.97,47.84626,-54.09684
2019-10-08 01:00:00+00:00,239.8214,9.3,12.89,47.84626,-54.09684
2019-10-08 01:10:00+00:00,233.0665,9.3,12.81,47.84626,-54.09684
2019-10-08 01:20:00+00:00,226.5565,9.3,12.89,47.84626,-54.09684
2019-10-08 01:30:00+00:00,231.4614,9.29,12.89,47.84626,-54.09684
2019-10-08 01:40:00+00:00,233.3281,9.3,12.97,47.84626,-54.09684
2019-10-08 01:50:00+00:00,227.2681,9.3,12.97,47.84626,-54.09684
2019-10-08 02:00:00+00:00,226.3248,9.3,12.89,47.84626,-54.09684
2019-10-08 02:10:00+00:00,231.7314,9.3,12.81,47.84626,-54.09684
2019-10-08 02:20:00+00:00,230.4848,9.3,12.89,47.84626,-54.09684
2019-10-08 02:30:00+00:00,227.0181,9.3,12.89,47.84626,-54.09684
2019-10-08 02:40:00+00:00,225.3764,9.3,12.89,47.84626,-54.09684
2019-10-08 02:50:00+00:00,226.3365,9.3,12.89,47.84626,-54.09684
2019-10-08 03:00:00+00:00,226.3964,9.3,12.81,47.84626,-54.09684
2019-10-08 03:10:00+00:00,229.5781,9.31,12.81,47.84626,-54.09684
2019-10-08 03:20:00+00:00,235.1747,9.33,12.89,47.84626,-54.09684
2019-10-08 03:30:00+00:00,236.6681,9.35,12.89,47.84626,-54.09684
2019-10-08 03:40:00+00:00,235.6781,9.36,12.89,47.84626,-54.09684
2019-10-08 03:50:00+00:00,239.5931,9.36,12.89,47.84626,-54.09684
2019-10-08 04:00:00+00:00,247.5764,9.36,12.81,47.84626,-54.09684
2019-10-08 04:10:00+00:00,249.6497,9.37,12.73,47.84626,-54.09684
2019-10-08 04:20:00+00:00,250.1498,9.37,12.81,47.84626,-54.09684
2019-10-08 04:30:00+00:00,255.1031,9.37,12.81,47.84626,-54.09684
2019-10-08 04:40:00+00:00,266.2331,9.38,12.89,47.84626,-54.09684
2019-10-08 04:50:00+00:00,267.9564,9.38,12.89,47.84626,-54.09684
2019-10-08 05:00:00+00:00,267.083,9.38,12.81,47.84626,-54.09684
2019-10-08 05:10:00+00:00,272.3764,9.38,12.73,47.84626,-54.09684
2019-10-08 05:20:00+00:00,281.163,9.39,12.81,47.84626,-54.09684
2019-10-08 05:30:00+00:00,282.4431,9.38,12.81,47.84626,-54.09684
2019-10-08 05:40:00+00:00,284.9647,9.39,12.89,47.84626,-54.09684
2019-10-08 05:50:00+00:00,289.1697,9.4,12.89,47.84626,-54.09684
2019-10-08 06:00:00+00:00,293.0214,9.4,12.81,47.84626,-54.09684
2019-10-08 06:10:00+00:00,294.5148,9.4,12.73,47.84626,-54.09684
2019-10-08 06:20:00+00:00,297.9064,9.4,12.81,47.84626,-54.09684
2019-10-08 06:30:00+00:00,301.5214,9.4,12.81,47.84626,-54.09684
2019-10-08 06:40:00+00:00,304.853,9.4,12.81,47.84626,-54.09684
2019-10-08 06:50:00+00:00,304.6797,9.4,12.89,47.84626,-54.09684
2019-10-08 07:00:00+00:00,302.8331,9.4,12.81,47.84626,-54.09684
2019-10-08 07:10:00+00:00,306.7114,9.4,12.73,47.84626,-54.09684
2019-10-08 07:20:00+00:00,314.0797,9.4,12.81,47.84626,-54.09684
2019-10-08 07:30:00+00:00,313.6013,9.4,12.81,47.84626,-54.09684
2019-10-08 07:40:00+00:00,307.2463,9.4,12.81,47.84626,-54.09684
2019-10-08 07:50:00+00:00,307.763,9.4,12.89,47.84626,-54.09684
2019-10-08 08:00:00+00:00,315.3797,9.4,12.81,47.84626,-54.09684
2019-10-08 08:10:00+00:00,318.6362,9.4,12.73,47.84626,-54.09684
2019-10-08 08:20:00+00:00,310.1813,9.4,12.81,47.84626,-54.09684
2019-10-08 08:30:00+00:00,309.113,9.4,12.81,47.84626,-54.09684
2019-10-08 08:40:00+00:00,314.3047,9.4,12.81,47.84626,-54.09684
2019-10-08 08:50:00+00:00,315.2796,9.4,12.89,47.84626,-54.09684
2019-10-08 09:00:00+00:00,305.9396,9.4,12.81,47.84626,-54.09684
2019-10-08 09:10:00+00:00,301.4747,9.4,12.73,47.84626,-54.09684
2019-10-08 09:20:00+00:00,296.8763,9.4,12.81,47.84626,-54.09684
2019-10-08 09:30:00+00:00,293.688,9.4,12.81,47.84626,-54.09684
2019-10-08 09:40:00+00:00,290.4081,9.4,12.81,47.84626,-54.09684
2019-10-08 09:50:00+00:00,286.9647,9.4,12.89,47.84626,-54.09684
2019-10-08 10:00:00+00:00,280.653,9.4,12.81,47.84626,-54.09684
2019-10-08 10:10:00+00:00,279.3413,9.4,12.73,47.84626,-54.09684
2019-10-08 10:20:00+00:00,277.0781,9.4,12.81,47.84626,-54.09684
2019-10-08 10:30:00+00:00,269.7631,9.4,12.81,47.84626,-54.09684
2019-10-08 10:40:00+00:00,264.7481,9.4,12.89,47.84626,-54.09684
2019-10-08 10:50:00+00:00,265.2831,9.4,12.89,47.84626,-54.09684
2019-10-08 11:00:00+00:00,261.4881,9.4,12.81,47.84626,-54.09684
2019-10-08 11:10:00+00:00,254.8514,9.4,12.81,47.84626,-54.09684
2019-10-08 11:20:00+00:00,254.6664,9.4,12.89,47.84626,-54.09684
2019-10-08 11:30:00+00:00,253.7398,9.4,12.89,47.84626,-54.09684
2019-10-08 11:40:00+00:00,248.6014,9.4,12.89,47.84626,-54.09684
2019-10-08 11:50:00+00:00,243.7548,9.4,12.97,47.84626,-54.09684
2019-10-08 12:00:00+00:00,249.7031,9.4,12.89,47.84626,-54.09684
2019-10-08 12:10:00+00:00,247.9348,9.4,12.81,47.84626,-54.09684
2019-10-08 12:20:00+00:00,242.273,9.4,12.89,47.84626,-54.09684
2019-10-08 12:30:00+00:00,240.3814,9.42,12.97,47.84626,-54.09684
2019-10-08 12:40:00+00:00,242.4047,9.43,12.97,47.84626,-54.09684
2019-10-08 12:50:00+00:00,241.8214,9.44,13.05,47.84626,-54.09684
2019-10-08 13:00:00+00:00,239.7381,9.44,13.05,47.84626,-54.09684
2019-10-08 13:10:00+00:00,237.3714,9.45,12.97,47.84626,-54.09684
2019-10-08 13:20:00+00:00,237.1547,9.46,13.13,47.84626,-54.09684
2019-10-08 13:30:00+00:00,239.6398,9.47,13.13,47.84626,-54.09684
2019-10-08 13:40:00+00:00,239.2798,9.47,13.21,47.84626,-54.09684
2019-10-08 13:50:00+00:00,235.9331,9.47,13.21,47.84626,-54.09684
2019-10-08 14:00:00+00:00,235.5031,9.47,13.13,47.84626,-54.09684
2019-10-08 14:10:00+00:00,238.0514,9.48,13.13,47.84626,-54.09684
2019-10-08 14:20:00+00:00,236.3914,9.47,13.21,47.84626,-54.09684
2019-10-08 14:30:00+00:00,233.7314,9.46,13.21,47.84626,-54.09684
2019-10-08 14:40:00+00:00,235.6947,9.47,13.21,47.84626,-54.09684
2019-10-08 14:50:00+00:00,238.2114,9.48,13.21,47.84626,-54.09684
2019-10-08 15:00:00+00:00,236.1297,9.46,13.21,47.84626,-54.09684
2019-10-08 15:10:00+00:00,237.1098,9.46,13.13,47.84626,-54.09684
2019-10-08 15:20:00+00:00,242.3398,9.47,13.21,47.84626,-54.09684
2019-10-08 15:30:00+00:00,245.5031,9.46,13.29,47.84626,-54.09684
2019-10-08 15:40:00+00:00,244.1181,9.44,13.37,47.84626,-54.09684
2019-10-08 15:50:00+00:00,247.3398,9.45,13.29,47.84626,-54.09684
2019-10-08 16:00:00+00:00,252.968,9.46,13.29,47.84626,-54.09684
2019-10-08 16:10:00+00:00,254.6097,9.46,13.13,47.84626,-54.09684
2019-10-08 16:20:00+00:00,255.3881,9.44,13.29,47.84626,-54.09684
2019-10-08 16:30:00+00:00,261.8231,9.45,13.29,47.84626,-54.09684
2019-10-08 16:40:00+00:00,268.688,9.46,13.29,47.84626,-54.09684
2019-10-08 16:50:00+00:00,271.8431,9.45,13.29,47.84626,-54.09684
2019-10-08 17:00:00+00:00,276.2964,9.45,13.29,47.84626,-54.09684
2019-10-08 17:10:00+00:00,284.6431,9.44,13.21,47.84626,-54.09684
2019-10-08 17:20:00+00:00,287.3964,9.45,13.21,47.84626,-54.09684
2019-10-08 17:30:00+00:00,290.5547,9.45,13.21,47.84626,-54.09684
2019-10-08 17:40:00+00:00,294.148,9.46,13.29,47.84626,-54.09684
2019-10-08 17:50:00+00:00,299.7697,9.47,13.29,47.84626,-54.09684
2019-10-08 18:00:00+00:00,302.7013,9.47,13.21,47.84626,-54.09684
2019-10-08 18:10:00+00:00,301.7313,9.47,13.05,47.84626,-54.09684
2019-10-08 18:20:00+00:00,305.418,9.47,13.21,47.84626,-54.09684
2019-10-08 18:30:00+00:00,312.4497,9.48,13.21,47.84626,-54.09684
2019-10-08 18:40:00+00:00,317.043,9.48,13.21,47.84626,-54.09684
2019-10-08 18:50:00+00:00,315.1896,9.47,13.21,47.84626,-54.09684
2019-10-08 19:00:00+00:00,317.1346,9.47,13.21,47.84626,-54.09684
2019-10-08 19:10:00+00:00,324.6964,9.48,13.05,47.84626,-54.09684
2019-10-08 19:20:00+00:00,323.4646,9.47,13.13,47.84626,-54.09684
2019-10-08 19:30:00+00:00,319.7814,9.47,13.13,47.84626,-54.09684
2019-10-08 19:40:00+00:00,328.0497,9.48,13.13,47.84626,-54.09684
2019-10-08 19:50:00+00:00,338.6846,9.47,13.13,47.84626,-54.09684
2019-10-08 20:00:00+00:00,333.113,9.47,13.05,47.84626,-54.09684
2019-10-08 20:10:00+00:00,331.5513,9.49,12.89,47.84626,-54.09684
2019-10-08 20:20:00+00:00,337.3679,9.49,12.97,47.84626,-54.09684
2019-10-08 20:30:00+00:00,341.4547,9.49,12.97,47.84626,-54.09684
2019-10-08 20:40:00+00:00,335.3363,9.49,12.97,47.84626,-54.09684
2019-10-08 20:50:00+00:00,333.5946,9.49,12.97,47.84626,-54.09684
2019-10-08 21:00:00+00:00,337.2147,9.5,12.89,47.84626,-54.09684
2019-10-08 21:10:00+00:00,334.988,9.49,12.81,47.84626,-54.09684
2019-10-08 21:20:00+00:00,329.1896,9.49,12.89,47.84626,-54.09684
2019-10-08 21:30:00+00:00,330.6363,9.49,12.89,47.84626,-54.09684
2019-10-08 21:40:00+00:00,328.5847,9.49,12.89,47.84626,-54.09684
2019-10-08 21:50:00+00:00,323.9363,9.49,12.89,47.84626,-54.09684
2019-10-08 22:00:00+00:00,317.8347,9.49,12.81,47.84626,-54.09684
2019-10-08 22:10:00+00:00,314.8297,9.49,12.81,47.84626,-54.09684
2019-10-08 22:20:00+00:00,310.4813,9.49,12.89,47.84626,-54.09684
2019-10-08 22:30:00+00:00,306.6897,9.49,12.89,47.84626,-54.09684
2019-10-08 22:40:00+00:00,302.4697,9.49,12.89,47.84626,-54.09684
2019-10-08 22:50:00+00:00,297.0764,9.46,12.89,47.84626,-54.09684
2019-10-08 23:00:00+00:00,292.4346,9.44,12.81,47.84626,-54.09684
2019-10-08 23:10:00+00:00,285.5848,9.43,12.73,47.84626,-54.09684
2019-10-08 23:20:00+00:00,283.5613,9.45,12.81,47.84626,-54.09684
2019-10-08 23:30:00+00:00,280.4064,9.44,12.81,47.84626,-54.09684
2019-10-08 23:40:00+00:00,278.6815,9.42,12.89,47.84626,-54.09684
2019-10-08 23:50:00+00:00,276.0014,9.42,12.89,47.84626,-54.09684
